Weather in Plavinas

Latvia     56˚36′48″N   25˚42′35″E
temp.,
°C
wind,
m/s
gust,
m/s
humid.,
%
clouds,
%
prec.,
mm/h
press.,
hPa
HPBL,
m
29 november, sun
sun2923:00e4784100 0.1 1025830
02:00ne378592 0.1 1025317
05:00ene379177 0.0 1025518
08:00ene368889 0.0 1025604
11:00ne4679100 0.0 1025741
14:00ne3786100 0.1 1023634
17:00−1˚nne3795100 0.4 1022579
20:00−1˚ne269299 0.9 1022505
30 november, mon
mon3023:00−2˚nne249485 0.1 1021290
02:00−2˚ne119682 0.2 1021101
05:00−2˚se119872 0.0 102023
08:00−2˚s119479 0.1 1021122
11:00−1˚ssw1288100 0.0 1021323
14:00−1˚sw2480100 0.1 1021623
17:00−1˚ssw2585100 0.1 1021542
20:00−1˚ssw3692100 0.1 1021426
1 december, tue
tue123:00−1˚ssw379295 0.2 1021545
02:00−1˚ssw498998 0.3 1022574
05:00ssw488799 0.0 1022644
08:00−2˚ssw498995 0.0 1024413
11:00−1˚ssw378796 0.0 1025459
14:00−1˚ssw368598 0.0 1027590
17:00ssw2687100 0.0 1028465
20:00−1˚s2692100 0.1 1029442
2 december, wed
wed223:00−1˚ssw2584100 0.1 1030609
02:00−1˚ssw2479100 0.1 1031628
05:00−2˚s2480100 0.0 1031380
08:00−2˚sse258499 0.0 1031254
11:00−2˚sse2578100 0.0 1032398
14:00−1˚se257872 0.0 1030479
17:00−3˚se25900 0.0 1030204
20:00−3˚se268932 0.0 1029265
3 december, thu
thu323:00−3˚se268989 0.0 1029276
02:00−4˚se259487 0.0 1027237
05:00−4˚ese259750 0.0 1026192
08:00−2˚se369373 0.1 1026326
11:00−2˚se378497 0.1 1025401
14:00−2˚se368296 0.1 1024466
17:00−2˚se278883 0.0 1023441
20:00−1˚se388491 0.0 1023738